Weather History for KY51 - May, 2013

Change the Weather History Date:

Wednesday, May 15, 2013

  Actual Average (KLSE) Record (KLSE)
Temperature  
Mean Temperature 65 °F 59 °F  
Max Temperature 72 °F 70 °F 91 °F (2001)
Min Temperature 58 °F 48 °F 30 °F (1983)
Degree Days  
Heating Degree Days 0 7  
Month to date heating degree days 126  
Since 1 July heating degree days 7078  
Cooling Degree Days 0 1  
Month to date cooling degree days 13  
Year to date cooling degree days 20  
Growing Degree Days 15 (Base 50)    
Moisture  
Dew Point 41 °F    
Average Humidity 41    
Maximum Humidity 63    
Minimum Humidity 26    
Precipitation  
Precipitation 0.00 in 0.10 in 2.08 in (1876)
Month to date precipitation 1.66  
Year to date precipitation 9.21  
Snow  
Snow 0.00 in 0.00 in 0.00 in (2002)
Month to date snowfall 0.1  
Since 1 July snowfall 43.4  
Snow Depth -    
Sea Level Pressure  
Sea Level Pressure 29.83 in    
Wind  
Wind Speed 10 mph (NW)    
Max Wind Speed 18 mph    
Max Gust Speed 23 mph    
Visibility 10 miles    
Events      
T = Trace of Precipitation, MM = Missing Value Source: NWS Daily Summary

Daily Weather History Graph

Daily Weather History Graph

Search for Another Location

Airport or City:

Trip Planner

Search our weather history database for the weather conditions in past years. The results will help you decide how hot, cold, wet, or windy it might be!

Date:

Astronomy

May. 15, 2013 Rise Set
Actual Time 5:38 AM CDT 8:22 PM CDT
Civil Twilight 5:05 AM CDT 8:55 PM CDT
Nautical Twilight 4:23 AM CDT 9:37 PM CDT
Astronomical Twilight 3:35 AM CDT 10:25 PM CDT
Moon 10:15 AM CDT (5/15) 12:07 AM CDT (5/15)
Length of Visible Light 15h 49m
Length of Day
14h 43m
Waxing Crescent, 27% of the Moon is Illuminated
May 15
Waxing Crescent
May 17
First Quarter
May 24
Full
May 31
Last Quarter
Jun 8
New

Hourly Weather History & Observations

Time (CDT) Temp. Dew Point Humidity Pressure Visibility Wind Dir Wind Speed Gust Speed Precip Events Conditions
12:15 AM 71.8 °F 37.0 °F 28% 29.65 in 10.0 mi WNW 9.2 mph - N/A   Clear
12:35 AM 69.8 °F 36.0 °F 29% 29.65 in 10.0 mi WNW 10.4 mph - N/A   Clear
12:55 AM 69.3 °F 35.1 °F 28% 29.66 in 10.0 mi WNW 10.4 mph - N/A   Clear
1:15 AM 68.0 °F 35.8 °F 31% 29.67 in 10.0 mi West 9.2 mph - N/A   Clear
1:35 AM 66.6 °F 36.1 °F 33% 29.68 in 10.0 mi West 9.2 mph - N/A   Clear
1:55 AM 66.7 °F 36.5 °F 33% 29.68 in 10.0 mi West 11.5 mph - N/A   Clear
2:15 AM 66.4 °F 36.9 °F 34% 29.68 in 10.0 mi West 10.4 mph - N/A   Clear
2:35 AM 66.4 °F 36.5 °F 33% 29.69 in 10.0 mi West 10.4 mph - N/A   Clear
2:55 AM 65.1 °F 37.4 °F 36% 29.69 in 10.0 mi West 10.4 mph - N/A   Clear
3:15 AM 64.9 °F 38.8 °F 38% 29.70 in 10.0 mi WNW 10.4 mph - N/A   Clear
3:35 AM 63.7 °F 41.0 °F 43% 29.71 in 10.0 mi WNW 9.2 mph - N/A   Clear
3:55 AM 62.6 °F 41.9 °F 47% 29.73 in 10.0 mi WNW 5.8 mph - N/A   Clear
4:15 AM 61.0 °F 42.1 °F 50% 29.73 in 10.0 mi NW 5.8 mph - N/A   Clear
4:35 AM 59.9 °F 42.4 °F 52% 29.74 in 10.0 mi WNW 6.9 mph - N/A   Clear
4:55 AM 59.0 °F 43.0 °F 55% 29.75 in 10.0 mi NW 5.8 mph - N/A   Clear
5:15 AM 58.3 °F 43.5 °F 58% 29.75 in 10.0 mi WNW 10.4 mph - N/A   Clear
5:35 AM 59.0 °F 44.8 °F 59% 29.76 in 10.0 mi NW 9.2 mph - N/A   Clear
5:55 AM 59.9 °F 45.9 °F 60% 29.77 in 10.0 mi NNW 11.5 mph - N/A   Clear
6:15 AM 59.0 °F 46.2 °F 63% 29.79 in 10.0 mi NW 10.4 mph - N/A   Clear
6:35 AM 59.0 °F 46.6 °F 63% 29.80 in 10.0 mi NW 10.4 mph - N/A   Clear
6:55 AM 60.3 °F 47.5 °F 63% 29.81 in 10.0 mi NNW 11.5 mph - N/A   Clear
7:15 AM 61.2 °F 47.1 °F 60% 29.83 in 10.0 mi NNW 12.7 mph - N/A   Clear
7:35 AM 61.3 °F 47.5 °F 60% 29.84 in 10.0 mi NNW 12.7 mph - N/A   Clear
7:55 AM 62.4 °F 46.8 °F 57% 29.85 in 10.0 mi NNW 13.8 mph 19.6 mph N/A   Clear
8:15 AM 63.0 °F 45.3 °F 53% 29.87 in 10.0 mi North 17.3 mph 20.7 mph N/A   Clear
8:35 AM 63.9 °F 45.0 °F 50% 29.88 in 10.0 mi North 17.3 mph 21.9 mph N/A   Clear
8:55 AM 64.4 °F 44.6 °F 49% 29.87 in 10.0 mi North 15.0 mph 23.0 mph N/A   Clear
9:15 AM 66.0 °F 45.5 °F 48% 29.87 in 10.0 mi North 15.0 mph - N/A   Clear
9:35 AM 66.6 °F 44.8 °F 45% 29.89 in 10.0 mi North 13.8 mph 18.4 mph N/A   Clear
9:55 AM 67.5 °F 43.9 °F 43% 29.88 in 10.0 mi North 18.4 mph - N/A   Clear
10:15 AM 68.0 °F 44.1 °F 42% 29.88 in 10.0 mi North 13.8 mph - N/A   Clear
10:35 AM 68.9 °F 40.8 °F 36% 29.89 in 10.0 mi North 13.8 mph 18.4 mph N/A   Clear
10:55 AM 70.0 °F 39.4 °F 33% 29.89 in 10.0 mi NNE 13.8 mph - N/A   Clear
11:15 AM 70.2 °F 37.9 °F 31% 29.91 in 10.0 mi North 10.4 mph - N/A   Clear
11:35 AM 71.2 °F 37.9 °F 30% 29.90 in 10.0 mi North 10.4 mph 16.1 mph N/A   Clear
11:55 AM 69.8 °F 37.6 °F 31% 29.91 in 10.0 mi NNW 9.2 mph - N/A   Clear
12:15 PM 70.2 °F 37.6 °F 30% 29.90 in 10.0 mi NNW 4.6 mph - N/A   Clear
12:55 PM 71.8 °F 36.1 °F 27% 29.90 in 10.0 mi NNW 11.5 mph 17.3 mph N/A   Scattered Clouds
1:15 PM 72.1 °F 35.8 °F 26% 29.89 in 10.0 mi NNW 5.8 mph - N/A   Scattered Clouds
1:35 PM 71.6 °F 38.3 °F 30% 29.90 in 10.0 mi NNW 10.4 mph - N/A   Scattered Clouds
1:55 PM 71.6 °F 37.4 °F 29% 29.89 in 10.0 mi NW 8.1 mph - N/A   Scattered Clouds
2:15 PM 70.2 °F 38.1 °F 31% 29.90 in 10.0 mi NNW 11.5 mph - N/A   Clear
2:35 PM 69.6 °F 39.6 °F 33% 29.89 in 10.0 mi NNW 5.8 mph 9.2 mph N/A   Scattered Clouds
2:55 PM 68.5 °F 39.0 °F 34% 29.90 in 10.0 mi NNW 10.4 mph - N/A   Mostly Cloudy
3:15 PM 69.3 °F 38.8 °F 33% 29.89 in 10.0 mi NNW 15.0 mph - N/A   Scattered Clouds
3:35 PM 70.7 °F 41.5 °F 35% 29.88 in 10.0 mi NNW 10.4 mph - N/A   Clear
3:55 PM 69.1 °F 41.2 °F 36% 29.87 in 10.0 mi NW 5.8 mph - N/A   Clear
4:15 PM 69.3 °F 40.1 °F 35% 29.87 in 10.0 mi WNW 4.6 mph - N/A   Clear
4:35 PM 70.9 °F 39.2 °F 32% 29.86 in 10.0 mi WNW 5.8 mph - N/A   Clear
4:55 PM 72.0 °F 39.9 °F 31% 29.86 in 10.0 mi West 6.9 mph - N/A   Clear
5:15 PM 72.1 °F 40.3 °F 32% 29.86 in 10.0 mi WNW 9.2 mph - N/A   Clear
5:35 PM 72.3 °F 40.5 °F 32% 29.86 in 10.0 mi WNW 4.6 mph - N/A   Clear
5:55 PM 72.1 °F 42.1 °F 34% 29.86 in 10.0 mi NW 9.2 mph - N/A   Clear
6:15 PM 71.1 °F 40.8 °F 33% 29.86 in 10.0 mi NW 10.4 mph - N/A   Clear
6:35 PM 71.1 °F 41.0 °F 34% 29.86 in 10.0 mi WNW 8.1 mph - N/A   Clear
6:55 PM 70.3 °F 41.9 °F 36% 29.87 in 10.0 mi WNW 6.9 mph - N/A   Clear
7:15 PM 70.0 °F 42.3 °F 37% 29.87 in 10.0 mi WNW 5.8 mph - N/A   Clear
7:35 PM 69.1 °F 43.7 °F 40% 29.87 in 10.0 mi WNW 3.5 mph - N/A   Clear
7:55 PM 67.3 °F 44.1 °F 43% 29.88 in 10.0 mi WNW 4.6 mph - N/A   Clear
8:15 PM 66.2 °F 43.9 °F 44% 29.88 in 10.0 mi West 4.6 mph - N/A   Clear
8:35 PM 66.0 °F 43.3 °F 44% 29.88 in 10.0 mi West 4.6 mph - N/A   Clear
8:55 PM 66.4 °F 43.0 °F 43% 29.88 in 10.0 mi West 4.6 mph - N/A   Clear
9:15 PM 64.8 °F 42.8 °F 45% 29.88 in 10.0 mi WSW 5.8 mph - N/A   Clear
9:35 PM 64.2 °F 42.8 °F 46% 29.88 in 10.0 mi WSW 4.6 mph - N/A   Clear
9:55 PM 63.3 °F 43.2 °F 48% 29.88 in 10.0 mi SW 3.5 mph - N/A   Clear
10:15 PM 64.4 °F 42.8 °F 45% 29.88 in 10.0 mi SW 4.6 mph - N/A   Clear
10:35 PM 62.6 °F 43.7 °F 50% 29.88 in 10.0 mi WSW 5.8 mph - N/A   Clear
10:55 PM 61.9 °F 43.7 °F 51% 29.88 in 10.0 mi SSW 4.6 mph - N/A   Clear
11:15 PM 61.5 °F 43.7 °F 52% 29.88 in 10.0 mi SW 4.6 mph - N/A   Clear
11:55 PM 59.0 °F 44.2 °F 58% 29.89 in 10.0 mi SW 6.9 mph - N/A   Clear